AirNav   Air Wisconsin pilot careers
 
 346 users online  

PAAN Gold King Creek Airport
Fairbanks, Alaska, USA

GOING TO FAIRBANKS?


FAA INFORMATION EFFECTIVE 11 OCTOBER 2018

Location

FAA Identifier: AK7
Lat/Long: 64-11-53.0000N / 147-55-43.0000W
64-11.883333N / 147-55.716667W
64.1980556 / -147.9286111
(estimated)
Elevation: 1720 ft. / 524 m (estimated)
Variation: 25E (1965)
From city: 39 miles SE of FAIRBANKS, AK
Time zone: UTC -8 (UTC -9 during Standard Time)
Zip code: 99743

Airport Operations

Airport use: Open to the public
Activation date: 02/2001
Control tower: no
ARTCC: ANCHORAGE CENTER
FSS: FAIRBANKS FLIGHT SERVICE STATION [907-474-0788]
NOTAMs facility: FAI (NOTAM-D service available)
Attendance: UNATNDD
Wind indicator: yes
Segmented circle: no

Airport Communications

CTAF: 122.9

Nearby radio navigation aids

VOR radial/distance  VOR name  Freq  Var
FAIr156/36.2FAIRBANKS VORTAC108.6021E
ENNr107/37.9NENANA VORTAC115.8021E

 
NDB name  Hdg/Dist  Freq  Var  ID
ICE POOL107/36.452518EICW .. -.-. .--

Airport Services

Runway Information

Runway 9/27

Dimensions: 2558 x 17 ft. / 780 x 5 m
Surface: gravel/dirt, in fair condition
ROCKS UP TO 6 INCHES ON RY SFC.
RUNWAY 9  RUNWAY 27
Latitude: 64-11.993708N64-11.772323N
Longitude: 147-56.125273W147-55.307022W
Traffic pattern: leftleft
Runway heading: 097 magnetic, 122 true277 magnetic, 302 true
Obstructions: 32 ft. trees25 ft. brush, 90 ft. left and right of centerline

Airport Ownership and Management from official FAA records

Ownership: Publicly-owned
Owner: ALASKA DOT&PF NORTHERN REGION
2301 PEGER ROAD
FAIRBANKS, AK 99709
Phone 907-451-2200
Manager: TOM WILLIAMS
2301 PEGER ROAD
FAIRBANKS, AK 99709
Phone (907) 451-5280

Airport Operational Statistics

Aircraft based on the field: 1
Single engine airplanes: 1
    
Aircraft operations: 50/year *
100% local general aviation
* for 12-month period ending 31 December 2014

Additional Remarks

RY CONDITION NOT MONITORED; RECOMMEND VISUAL INSP PRIOR TO LANDING.
NO SVCS AVBL.
40 FT TREES ON BOTH SIDES OF RY WITHIN 50 FT OF CENTERLINE.
RY SUITABLE FOR HIGH WING ACFT ONLY.
RY 27 HAS A 500 FT SAFETY AREA WITH TREES UP TO 3 FT GROWING ON SFC.

Instrument Procedures

There are no published instrument procedures at PAAN.

Some nearby airports with instrument procedures:

PAHV - Healy River Airport (34 nm SW)
PAEI - Eielson Air Force Base (35 nm NE)
PANN - Nenana Municipal Airport (36 nm NW)
PAFA - Fairbanks International Airport (37 nm N)
PAFB - Ladd Army Airfield (39 nm N)
 
Loc | Ops | Rwys | IFR | FBO | Links
Com | Nav | Svcs | Stats | Notes

Crowley
 
Area around PAAN (Gold King Creek Airport)
 
Road maps at: MapQuest Bing Google
 
Aerial photo
WARNING: Photo may not be current or correct
Aerial photo of PAAN (Gold King Creek Airport)
Photo taken 18-Feb-2012
looking west.

Do you have a better or more recent aerial photo of Gold King Creek Airport that you would like to share? If so, please send us your photo.

 
Sectional chart

 
Airport distance calculator
Flying to Gold King Creek Airport? Find the distance to fly.

From to PAAN

Sunrise and sunset
Times for 16-Oct-2018
 Local
(UTC-8)
 Zulu
(UTC)
Morning civil twilight07:5815:58
Sunrise08:4716:47
Sunset18:2802:28
Evening civil twilight19:1703:17

Current date and time
Zulu (UTC)  16-Oct-2018 09:06:27
Local (UTC-8)  16-Oct-2018 01:06:27
 
METAR
PAEI 
35nm NE 
160856Z 34005KT 10SM BKN100 11/02 A2934 RMK AO2A SLP942 60000 T01100020 401101075 57025 $
PANN 
37nm NW 
160853Z AUTO 05005KT 10SM BKN080 OVC100 08/04 A2933 RMK AO2 RAE30 SLP940 P0000 60002 T00830039 400890017 56022 TSNO
PAFA 
37nm N 
160853Z 06004KT 10SM BKN065 OVC090 07/04 A2936 RMK AO2 RAE37 SLP947 P0000 60001 T00670044 400721044 56026 $
PAIN 
38nm SW 
160856Z AUTO 22007KT 10SM -RA OVC050 09/04 A2934 RMK AO2 RAB13 SLP951 P0000 60000 T00940044 401061033 56017
PAFB 
39nm N 
160858Z AUTO 06007KT 10SM OVC085 06/05 A2936 RMK AO2 RAB07E26 SLP947 P0000 60001 T00640050 400671020 57027 $
TAF
PAEI 
35nm NE 
160810Z 1608/1710 36009KT 9999 VCSH SCT090 BKN130 QNH2930INS TEMPO 1608/1612 11012G18KT 8000 -RA BKN060 OVC200 620604 BECMG 1611/1612 12020G30KT 9999 VCSH SCT100 BKN120 510003 QNH2919INS TEMPO 1612/1614 12025G35KT 8000 -RA BECMG 1623/1624 27006KT 9999 NSW SCT040 QNH2938INS TX12/1704Z TN00/1620Z
PAFA 
37nm N 
160525Z 1606/1712 03005KT P6SM -RA SCT050 OVC060 FM160700 03007KT P6SM -SHRA SCT025 OVC060 FM161000 03005KT 5SM -SHRA BR FEW005 SCT015 BKN025 FM162000 VRB04KT P6SM SCT025 OVC100 FM170200 04004KT P6SM SCT050 SCT100
PAFB 
39nm N 
160400Z 1604/1710 04009KT 8000 -RA FEW030 BKN060 620604 QNH2940INS BECMG 1607/1608 07012KT 8000 -RA BKN070 620703 QNH2920INS TEMPO 1610/1614 09015G20KT BECMG 1700/1701 19012KT 9999 NSW SCT060 BKN100 QNH2938INS TX08/1623Z TNM01/1615Z
NOTAMs
Click for the latest NOTAMs
NOTAMs are issued by the DoD/FAA and will open in a separate window not controlled by AirNav.

 

 
 

Would you like to see your business listed on this page?

 If your business provides an interesting product or service to pilots, flight crews, aircraft, or users of the Gold King Creek Airport, you should consider listing it here.  To start the listing process, click on the button below
 
Add a business
 

Other Pages about Gold King Creek Airport

Update a link
 
Copyright © AirNav, LLC. All rights reserved. Privacy Policy  Contact